Location: *
(49.5667°N, 1.3667°W)
Time: 13:37:10
(UTC+00:00)

SL-8 R/B - Pass Details

Date: 20 September 2019
Orbit: 657 x 667 km, 48.4° (Epoch: 19 October)

Event Time Altitude Azimuth Distance (km) Brightness Sun altitude
Rises 20:00:38 0° 268° (W) 2,985 8.2 -18.4°
Reaches altitude 10° 20:02:58 10° 267° (W) 2,075 7.2 -18.7°
Maximum altitude 20:07:46 80° 181° (S) 676 3.6 -19.4°
Enters shadow 20:09:15 44° 102° (ESE) 913 3.9 -19.7°
